• In Deutschland
  • Länderverzeichnis
  • Für 7 Tage
  • Wassertemperatur
  • Satellitenkarten
  • Wetterkarte
  • Widgets
  • user-avatar
    Anmelden

    Stündliche Wetter Bad Griesbach im Rottal

    Heute, 19 Oktober, Donnerstag

    Zeit Temperatur Niederschläge Wind Luftdruck Luftfeuchtigkeit
    00:00 +9°C° 0 mm 0 m/S 723 mmHg 90%
    01:00 +9°C° 0 mm 0 m/S 723 mmHg 90%
    02:00 +9°C° 0 mm 0 m/S 723 mmHg 90%
    03:00 +8°C° 0 mm 0 m/S 723 mmHg 90%
    04:00 +8°C° 0 mm 0 m/S 723 mmHg 90%
    05:00 +9°C° 0 mm 1 m/S 723 mmHg 89%
    06:00 +9°C° 0 mm 1 m/S 723 mmHg 88%
    07:00 +9°C° 0 mm 1 m/S 723 mmHg 88%
    08:00 +11°C° 0 mm 1 m/S 723 mmHg 81%
    09:00 +13°C° 0 mm 0 m/S 723 mmHg 73%
    10:00 +15°C° 0 mm 0 m/S 723 mmHg 66%
    11:00 +18°C° 0 mm 1 m/S 723 mmHg 62%
    12:00 +19°C° 0 mm 1 m/S 723 mmHg 59%
    13:00 +21°C° 0 mm 1 m/S 723 mmHg 55%
    14:00 +20°C° 0 mm 1 m/S 723 mmHg 60%
    15:00 +19°C° 0 mm 1 m/S 723 mmHg 65%
    16:00 +18°C° 0 mm 1 m/S 722 mmHg 70%
    17:00 +16°C° 0 mm 1 m/S 723 mmHg 74%
    18:00 +14°C° 0 mm 1 m/S 723 mmHg 78%
    19:00 +12°C° 0 mm 1 m/S 723 mmHg 82%
    20:00 +12°C° 0 mm 1 m/S 723 mmHg 82%
    21:00 +11°C° 0 mm 1 m/S 723 mmHg 82%
    22:00 +11°C° 0 mm 1 m/S 723 mmHg 81%
    23:00 +10°C° 0 mm 1 m/S 723 mmHg 81%

    Morgen, 20 Oktober, Freitag

    Zeit Temperatur Niederschläge Wind Luftdruck Luftfeuchtigkeit
    00:00 +10°C° 0 mm 1 m/S 723 mmHg 81%
    01:00 +10°C° 0 mm 1 m/S 723 mmHg 80%
    02:00 +10°C° 0 mm 1 m/S 723 mmHg 80%
    03:00 +9°C° 0 mm 1 m/S 723 mmHg 79%
    04:00 +9°C° 0 mm 1 m/S 723 mmHg 79%
    05:00 +9°C° 0 mm 1 m/S 723 mmHg 79%
    06:00 +9°C° 0 mm 1 m/S 724 mmHg 79%
    07:00 +9°C° 0 mm 1 m/S 724 mmHg 78%
    08:00 +11°C° 0 mm 1 m/S 724 mmHg 72%
    09:00 +13°C° 0 mm 1 m/S 725 mmHg 66%
    10:00 +15°C° 0 mm 1 m/S 725 mmHg 60%
    11:00 +16°C° 0 mm 1 m/S 725 mmHg 59%
    12:00 +18°C° 0 mm 1 m/S 725 mmHg 57%
    13:00 +18°C° 0 mm 2 m/S 725 mmHg 56%
    14:00 +19°C° 0 mm 1 m/S 725 mmHg 61%
    15:00 +18°C° 0 mm 1 m/S 725 mmHg 67%
    16:00 +18°C° 0 mm 1 m/S 725 mmHg 72%
    17:00 +15°C° 0 mm 1 m/S 725 mmHg 77%
    18:00 +14°C° 0 mm 1 m/S 726 mmHg 82%
    19:00 +12°C° 0 mm 1 m/S 726 mmHg 86%
    20:00 +12°C° 0 mm 1 m/S 726 mmHg 87%
    21:00 +11°C° 0 mm 1 m/S 726 mmHg 87%
    22:00 +11°C° 0 mm 1 m/S 726 mmHg 88%
    23:00 +11°C° 0 mm 1 m/S 726 mmHg 88%

    übermorgen, 21 Oktober, Samstag

    Zeit Temperatur Niederschläge Wind Luftdruck Luftfeuchtigkeit
    00:00 +11°C° 0 mm 1 m/S 726 mmHg 87%
    01:00 +11°C° 0 mm 1 m/S 726 mmHg 87%
    02:00 +10°C° 0 mm 1 m/S 726 mmHg 86%
    03:00 +10°C° 0 mm 1 m/S 726 mmHg 86%
    04:00 +10°C° 0 mm 1 m/S 726 mmHg 85%
    05:00 +10°C° 0 mm 1 m/S 726 mmHg 84%
    06:00 +11°C° 0 mm 1 m/S 726 mmHg 82%
    07:00 +11°C° 0 mm 1 m/S 726 mmHg 81%
    08:00 +12°C° 0 mm 1 m/S 726 mmHg 75%
    09:00 +14°C° 0 mm 1 m/S 726 mmHg 70%
    10:00 +16°C° 0 mm 1 m/S 726 mmHg 64%
    11:00 +18°C° 0 mm 1 m/S 726 mmHg 61%
    12:00 +19°C° 0 mm 1 m/S 725 mmHg 58%
    13:00 +20°C° 0 mm 1 m/S 725 mmHg 54%
    14:00 +20°C° 0 mm 1 m/S 725 mmHg 59%
    15:00 +19°C° 0 mm 1 m/S 724 mmHg 64%
    16:00 +18°C° 0 mm 1 m/S 724 mmHg 68%
    17:00 +16°C° 0 mm 1 m/S 724 mmHg 70%
    18:00 +15°C° 0 mm 1 m/S 724 mmHg 72%
    19:00 +14°C° 0 mm 1 m/S 725 mmHg 74%
    20:00 +14°C° 0,1 mm 1 m/S 725 mmHg 78%
    21:00 +13°C° 0,1 mm 1 m/S 725 mmHg 81%
    22:00 +13°C° 0,1 mm 2 m/S 725 mmHg 84%
    23:00 +13°C° 0,1 mm 2 m/S 725 mmHg 86%

    22 Oktober, Sonntag

    Zeit Temperatur Niederschläge Wind Luftdruck Luftfeuchtigkeit
    00:00 +13°C° 0,1 mm 2 m/S 726 mmHg 89%
    01:00 +13°C° 0,1 mm 2 m/S 726 mmHg 92%
    02:00 +12°C° 0,7 mm 2 m/S 726 mmHg 93%
    03:00 +12°C° 0,7 mm 2 m/S 726 mmHg 93%
    04:00 +12°C° 0,7 mm 2 m/S 726 mmHg 94%
    05:00 +10°C° 0,7 mm 2 m/S 726 mmHg 95%
    06:00 +10°C° 0,7 mm 2 m/S 725 mmHg 95%
    07:00 +9°C° 0,7 mm 2 m/S 725 mmHg 95%
    08:00 +9°C° 0,8 mm 2 m/S 726 mmHg 94%
    09:00 +9°C° 0,8 mm 3 m/S 726 mmHg 93%
    10:00 +9°C° 0,8 mm 3 m/S 726 mmHg 92%
    11:00 +9°C° 0,9 mm 3 m/S 726 mmHg 91%
    12:00 +9°C° 0,9 mm 3 m/S 726 mmHg 89%
    13:00 +9°C° 0,9 mm 3 m/S 726 mmHg 88%
    14:00 +9°C° 0,4 mm 3 m/S 726 mmHg 88%
    15:00 +9°C° 0,4 mm 3 m/S 726 mmHg 89%
    16:00 +8°C° 0,4 mm 2 m/S 726 mmHg 89%
    17:00 +8°C° 0,1 mm 2 m/S 726 mmHg 90%
    18:00 +7°C° 0,1 mm 2 m/S 727 mmHg 91%
    19:00 +7°C° 0,1 mm 2 m/S 727 mmHg 91%
    20:00 +6°C° 0,1 mm 2 m/S 727 mmHg 92%
    21:00 +6°C° 0,1 mm 2 m/S 727 mmHg 92%
    22:00 +5°C° 0,1 mm 3 m/S 727 mmHg 92%
    23:00 +5°C° 0 mm 3 m/S 727 mmHg 92%

    23 Oktober, Montag

    Zeit Temperatur Niederschläge Wind Luftdruck Luftfeuchtigkeit
    00:00 +5°C° 0 mm 3 m/S 727 mmHg 92%
    01:00 +5°C° 0 mm 3 m/S 727 mmHg 92%
    02:00 +5°C° 0,2 mm 3 m/S 727 mmHg 92%
    03:00 +5°C° 0,2 mm 3 m/S 727 mmHg 92%
    04:00 +5°C° 0,2 mm 3 m/S 727 mmHg 93%
    05:00 +5°C° 0,3 mm 3 m/S 727 mmHg 93%
    06:00 +5°C° 0,3 mm 3 m/S 727 mmHg 93%
    07:00 +5°C° 0,3 mm 3 m/S 727 mmHg 93%
    08:00 +7°C° 0,4 mm 3 m/S 728 mmHg 92%
    09:00 +6°C° 0,4 mm 4 m/S 728 mmHg 91%
    10:00 +7°C° 0,4 mm 4 m/S 728 mmHg 90%
    11:00 +7°C° 0,2 mm 4 m/S 728 mmHg 90%
    12:00 +7°C° 0,2 mm 4 m/S 728 mmHg 89%
    13:00 +7°C° 0,2 mm 5 m/S 728 mmHg 88%
    14:00 +7°C° 0,1 mm 4 m/S 729 mmHg 88%
    15:00 +9°C° 0,1 mm 3 m/S 729 mmHg 88%
    16:00 +9°C° 0,1 mm 3 m/S 729 mmHg 88%
    17:00 +8°C° 0,1 mm 2 m/S 730 mmHg 90%
    18:00 +7°C° 0,1 mm 2 m/S 730 mmHg 92%
    19:00 +7°C° 0,1 mm 2 m/S 731 mmHg 94%
    20:00 +6°C° 0,1 mm 2 m/S 731 mmHg 95%
    21:00 +6°C° 0,1 mm 2 m/S 731 mmHg 95%
    22:00 +6°C° 0,1 mm 2 m/S 732 mmHg 96%
    23:00 +6°C° 0 mm 2 m/S 732 mmHg 96%

    24 Oktober, Dienstag

    Zeit Temperatur Niederschläge Wind Luftdruck Luftfeuchtigkeit
    00:00 +6°C° 0 mm 2 m/S 732 mmHg 96%
    01:00 +7°C° 0 mm 1 m/S 732 mmHg 96%
    02:00 +7°C° 0 mm 1 m/S 732 mmHg 95%
    03:00 +7°C° 0 mm 1 m/S 732 mmHg 95%
    04:00 +7°C° 0 mm 1 m/S 732 mmHg 95%
    05:00 +7°C° 0 mm 1 m/S 732 mmHg 94%
    06:00 +7°C° 0 mm 1 m/S 732 mmHg 94%
    07:00 +7°C° 0 mm 1 m/S 732 mmHg 94%
    08:00 +8°C° 0 mm 1 m/S 732 mmHg 89%
    09:00 +10°C° 0 mm 1 m/S 732 mmHg 84%
    10:00 +11°C° 0 mm 1 m/S 732 mmHg 79%
    11:00 +12°C° 0 mm 1 m/S 732 mmHg 74%
    12:00 +13°C° 0 mm 1 m/S 731 mmHg 69%
    13:00 +14°C° 0 mm 1 m/S 731 mmHg 65%
    14:00 +14°C° 0 mm 1 m/S 731 mmHg 68%
    15:00 +14°C° 0 mm 1 m/S 731 mmHg 71%
    16:00 +12°C° 0 mm 0 m/S 731 mmHg 74%
    17:00 +11°C° 0 mm 0 m/S 731 mmHg 78%
    18:00 +10°C° 0 mm 1 m/S 731 mmHg 83%
    19:00 +9°C° 0 mm 1 m/S 731 mmHg 87%
    20:00 +9°C° 0 mm 1 m/S 731 mmHg 87%
    21:00 +9°C° 0 mm 1 m/S 731 mmHg 88%
    22:00 +8°C° 0 mm 1 m/S 731 mmHg 88%
    23:00 +8°C° 0 mm 1 m/S 731 mmHg 88%
    Mehr zeigen